Miscellaneous Local Product
Issued by NWS North Platte, NE

Home | Current Version | Previous Version | Graphics & Text | Print | Product List | Glossary On
Versions: 1 2 3 4 5 6 7 8 9 10 11 12 13 14 15 16 17 18 19 20 21 22 23 24 25 26 27 28 29 30 31 32 33 34 35 36 37 38 39 40 41 42 43 44 45 46 47 48 49 50
000
AXUS43 KLBF 171210
MISLBF


WESTERN AND NORTH CENTRAL NEBRASKA HOURLY WEATHER ROUNDUP
NATIONAL WEATHER SERVICE NORTH PLATTE NE
600 AM CST WED JAN 17 2018

NOTE: "FAIR" INDICATES FEW OR NO CLOUDS BELOW 12,000 FEET WITH NO
SIGNIFICANT WEATHER AND/OR OBSTRUCTIONS TO VISIBILITY.

NOTE: STATIONS NOT REPORTING VARIABLES SUCH AS SKY/WEATHER OR
PRESSURE ARE PROVIDED BY RAWS AND APRS NETWORKS AND ARE NOT UNDER
NATIONAL WEATHER SERVICE QUALITY CONTROL.

...OBSERVATIONS IN AND NEAR THE EASTERN PANHANDLE OF NEBRASKA...

CITY           SKY/WX    TMP DP  RH WIND       PRES   REMARKS
PINE RIDGE     CLEAR     11   4  73 W8        30.21S WCI  -1
GORDON         FAIR      13   3  65 W3        30.20S
CHADRON        CLEAR      9   3  77 W6        30.22S WCI  -1
ALLIANCE       CLEAR      0  -5  79 W6        30.21S WCI -12
SIDNEY         CLEAR      8   2  76 W8        30.22F WCI  -4
CRESCENT LAKE    N/A      8   0  70 CALM        N/A
$$

...OBSERVATIONS IN NORTHERN NEBRASKA AND FAR SOUTHERN SOUTH DAKOTA...

CITY           SKY/WX    TMP DP  RH WIND       PRES   REMARKS
WINNER         FAIR      19   7  59 SW16      30.22F WCI   4
VALENTINE      CLEAR      9   2  73 SW7       30.23F WCI  -2
AINSWORTH      CLEAR     12   3  67 SW10      30.25S WCI  -1
O`NEILL        CLEAR      9   1  71 SW12      30.31F WCI  -6
THEDFORD       PTCLDY    11   2  66 SW6       30.27S WCI   1
BROKEN BOW     CLEAR      3  -5  69 S3        30.33F
ORD            CLEAR     10   0  63 S12       30.36F WCI  -5
ALBION         CLOUDY     8   1  73 S8        30.41F WCI  -5
VALENTINE NWR    N/A     13   0  56 S10         N/A  WCI   0
HALSEY           N/A      9  -3  59 SW7         N/A  WCI  -2
BUTTE            N/A     10   3  72 S9          N/A  WCI  -3
CHAMBERS         N/A      8  -3  60 SW7         N/A  WCI  -3
EWING            N/A     10   3  74 SW8         N/A  WCI  -2
$$

...OBSERVATIONS IN SOUTHWEST NEBRASKA AND FAR NORTHEAST COLORADO...

CITY           SKY/WX    TMP DP  RH WIND       PRES   REMARKS
WRAY           FAIR       5   0  78 W7        30.27S WCI  -7
HOLYOKE        FAIR       9   1  72 W8        30.25F WCI  -4
IMPERIAL       CLEAR      3  -1  83 SW6       30.29S WCI  -8
OGALLALA       CLEAR      4   0  81 CALM      30.28S
NORTH PLATTE   CLEAR      8  -2  63 S8        30.33F WCI  -4
MCCOOK         CLEAR      2  -4  76 E5        30.36F WCI  -8
LEXINGTON      CLEAR     10  -1  62 S6        30.38S WCI   0
STAPLETON        N/A      5  -1  76 CALM        N/A
GOTHENBURG       N/A      8  -1  68 S3          N/A
CALLAWAY         N/A      7   1  75 S8          N/A  WCI  -5
$$

...OBSERVATIONS IN CENTRAL LINCOLN COUNTY AREA...

CITY           SKY/WX    TMP DP  RH WIND       PRES   REMARKS
N.P. AIRPORT   CLEAR      8  -2  63 S8        30.33F WCI  -4
N.P. DOWNTOWN    N/A      4  -1  79 CALM        N/A
N.P. SOUTHEAST   N/A      4  -1  80 CALM        N/A
N.P. HILLCREST   N/A      6   0  76 SW3         N/A
$$

...SOME OBSERVATIONS FROM AROUND THE REGION...

CITY           SKY/WX    TMP DP  RH WIND       PRES   REMARKS
DENVER         CLEAR     19   6  57 CALM      30.20S
BERTHOUD PASS  FAIR      12   1  62 NW23G32   30.28S WCI  -7
GRAND JUNCTION PTCLDY    16  12  84 CALM      30.40R
LARAMIE        CLEAR     -1  -9  68 SW3       30.23S
CHEYENNE       CLEAR     19   0  43 NW3       30.20R
CASPER         CLEAR     27  10  49 SW18      30.25R WCI  14
BISMARCK       CLEAR     -4  -9  79 SE3       30.13F
RAPID CITY     PTCLDY    16   3  56 CALM      30.16R
PIERRE         PTCLDY     6   2  83 SW3       30.23S
SIOUX FALLS    CLOUDY     8   1  73 S13       30.35F WCI  -8
OMAHA          CLOUDY     2  -2  83 S10       30.55F WCI -14
GRAND ISLAND   CLOUDY     8   0  69 SW10      30.44F WCI  -6
SCOTTSBLUFF    CLEAR      5   1  83 NW13      30.24S WCI -12
KANSAS CITY    CLOUDY     0  -5  79 SW7       30.63F WCI -13
HILL CITY      CLOUDY     7  -2  66 SW5       30.44F WCI  -2
WICHITA        CLOUDY     2  -1  88 S6        30.64S WCI  -9
DODGE CITY     CLOUDY     5  -5  63 S12       30.45F WCI -11
OKLAHOMA CITY  CLOUDY     5  -1  76 S5        30.67F WCI  -4
DALLAS         PTCLDY    13   3  64 NE5       30.72F WCI   5
AMARILLO       CLOUDY     9  -2  61 S10       30.42F WCI  -5
$$




USA.gov is the U.S. government's official web portal to all federal, state and local government web resources and services.